Tracking 30298 objects as of 27-Apr-2025
HD Live streaming from Space Station
objects crossing your sky now

SL-8 R/B

Track SL-8 R/B now!
10-day predictions


NORAD ID: 13003
Int'l Code: 1981-120G
Perigee: 1,660.7 km
Apogee: 1,791.7 km
Inclination: 83.0 °
Period: 120.9 minutes
Semi major axis: 8097 km
RCS: 6.3263 m2 (large)
Launch date: December 17, 1981
Source: Commonwealth of Independent States (former USSR) (CIS)
Launch site: PLESETSK MISSILE AND SPACE COMPLEX (PKMTR)

Note: This is a ROCKET BODY
Your satellite tracking list
Your tracking list is empty




NASA's NSSDC Master Catalog

Two Line Element Set (TLE):
1 13003U 81120G   25116.89257207  .00000068  00000-0  81555-3 0  9995
2 13003  82.9565 171.2709 0080901 304.8530 229.2924 11.91524516885839
Source of the keplerian elements: AFSPC